Showing default

UM5-EOSAT, 60555

Orbit data source: Space-Track

UM5-EOSAT, 60555 is a Moroccan payload satellite in SSO that was launched on Fri, 16 Aug 2024 UTC via an FALCON 9 launch vehicle from the Air Force Western Test Range (AFWTR). Payload-class satellites include a variety of spacecraft equipped with specific instruments for various scientific and technological missions. These include communications satellites like Starlink; space stations such as the ISS; scientific satellites like the Hubble; Earth observation satellites from companies like Planet Labs, Umbra, and HawkEye 360; GPS; miniature CubeSats for education and research; and military/defense satellites.

Loading next visibility...
Identifier
60555, 2024-149CR
Orbit
SSO
Country
Flag of MAMA
Related business
Manufacturer
UM5R
Mission
Operational Amateur Imaging
Bus & Motor
CUBESAT 3U, Unknown motor
Mass
5 kg wet, 5 kg dry
Launch date (UTC)
2024-08-16 (2 years ago)
Launch vehicle
FALCON 9
Launch site
Air Force Western Test Range (AFWTR)
Object type
Payload
Rocket body
Debris
Shape & HBR
Box, 0.2 m
Radar Cross Section
0.080 m², Medium (>0.1 m² and < 1m²)

Expand to show TLE details & history
Last TLE update: 16 hours ago

TLE from 16 hours ago
0 UM5-EOSAT
1 60555U 24149CR  26264.78236289  .00001843  00000-0  14513-3 0  9999
2 60555  97.6641 342.4382 0009714 167.5100 192.6367 15.02002007114718
Epoch: 2026-09-21T18:46Z
TLE epoch observation values (Epoch: 2026-09-21T18:46:36.153Z)
Latitude
-0.00005°
Longitude
60.13032°
Altitude
570.361 km
Speed
7.572 km/s
True Right ascension
22h 49m 45s
True Declination
0° 00' 00"
Sunlit
Object was in full shadow at epoch
Visualization orbit readout
Latitude
Unknown
Longitude
Unknown
Altitude
Unknown
Speed
Unknown
Apparent Right ascension
Unknown
Apparent Declination
Unknown
Sunlit
N/A
Visualization observer readout
Local Sidereal Time
03:42:54
Azimuth
Unknown
Elevation
Unknown
Doppler factor
Unknown
Orbital elements
Apogee altitude
564.462 km
Perigee altitude
550.987 km
Semi-major axis
6,935.862 km
Eccentricity
0.00097
Inclination
97.6641°
RAAN
342.4382°
Arg. of periapsis
167.51°
True anomaly
192.61238°
Mean anomaly
192.6367°
Eccentric anomaly
192.62454°
Mean motion
3.75744 °/min
Orbital period
95.81 mins
BSTAR
0.00014513
Loading maneuver chart data...
Computing Atmospheric mass density...
Loading historical data...
Loading historical data...
Loading historical data...
Loading historical data...
Loading historical data...
Loading historical data...
Loading historical data...

Documentation

Showing up to 5 results
|